Tracking 35331 objects as of 16-Sep-2026
HD Live streaming from Space Station
objects crossing your sky now

COSMOS 1484 DEB


COSMOS 1484 DEB is no longer on orbit


NORAD ID: 22961
Int'l Code: 1983-075AQ
Launch date: July 24, 1983
Source: Commonwealth of Independent States (former USSR) (CIS)
Launch site: TYURATAM MISSILE AND SPACE COMPLEX (TTMTR)
Decay date: 1995-05-01

Note: This is SATELLITE DEBRIS
Your satellite tracking list
Your tracking list is empty




NASA's NSSDC Master Catalog

Two Line Element Set (TLE):
1 22961U 83075 AQ 95119.04318505 -.02635971 +1150300 +69520-2 0  9991
2 22961 097.4449 154.1116 0013641 246.9763 119.8431 16.10363517084237
Source of the keplerian elements: AFSPC